Year,Month,Day,Hour,Minute,Value (Times are PST for temperature in C)
2015,06,28,00,00,20.50
2015,06,28,00,01,20.50
2015,06,28,00,02,20.40
2015,06,28,00,03,20.40
2015,06,28,00,04,20.40
2015,06,28,00,05,20.40
2015,06,28,00,06,20.40
2015,06,28,00,07,20.40
2015,06,28,00,08,20.40
2015,06,28,00,09,20.40
2015,06,28,00,10,20.40
2015,06,28,00,11,20.30
2015,06,28,00,12,20.30
2015,06,28,00,13,20.30
2015,06,28,00,14,20.30
2015,06,28,00,15,20.30
2015,06,28,00,16,20.30
2015,06,28,00,17,20.30
2015,06,28,00,18,20.30
2015,06,28,00,19,20.20
2015,06,28,00,20,20.20
2015,06,28,00,21,20.20
2015,06,28,00,22,20.20
2015,06,28,00,23,20.20
2015,06,28,00,24,20.20
2015,06,28,00,25,20.20
2015,06,28,00,26,20.20
2015,06,28,00,27,20.20
2015,06,28,00,28,20.10
2015,06,28,00,29,20.10
2015,06,28,00,30,20.10
2015,06,28,00,31,20.10
2015,06,28,00,32,20.10
2015,06,28,00,33,20.10
2015,06,28,00,34,20.10
2015,06,28,00,35,20.10
2015,06,28,00,36,20.10
2015,06,28,00,37,20.10
2015,06,28,00,38,20.10
2015,06,28,00,39,20.10
2015,06,28,00,40,20.10
2015,06,28,00,41,20.00
2015,06,28,00,42,20.00
2015,06,28,00,43,20.00
2015,06,28,00,44,20.00
2015,06,28,00,45,20.00
2015,06,28,00,46,20.00
2015,06,28,00,47,20.00
2015,06,28,00,48,20.00
2015,06,28,00,49,20.00
2015,06,28,00,50,20.10
2015,06,28,00,51,20.10
2015,06,28,00,52,20.10
2015,06,28,00,53,20.10
2015,06,28,00,54,20.10
2015,06,28,00,55,20.20
2015,06,28,00,56,20.20
2015,06,28,00,57,20.30
2015,06,28,00,58,20.30
2015,06,28,00,59,20.30
2015,06,28,01,00,20.30
2015,06,28,01,01,20.30
2015,06,28,01,02,20.40
2015,06,28,01,03,20.40
2015,06,28,01,04,20.40
2015,06,28,01,05,20.30
2015,06,28,01,06,20.30
2015,06,28,01,07,20.30
2015,06,28,01,08,20.30
2015,06,28,01,09,20.30
2015,06,28,01,10,20.30
2015,06,28,01,11,20.30
2015,06,28,01,12,20.30
2015,06,28,01,13,20.30
2015,06,28,01,14,20.20
2015,06,28,01,15,20.20
2015,06,28,01,16,20.20
2015,06,28,01,17,20.20
2015,06,28,01,18,20.10
2015,06,28,01,19,20.10
2015,06,28,01,20,20.00
2015,06,28,01,21,19.90
2015,06,28,01,22,19.90
2015,06,28,01,23,19.80
2015,06,28,01,24,19.80
2015,06,28,01,25,19.80
2015,06,28,01,26,19.70
2015,06,28,01,27,19.70
2015,06,28,01,28,19.70
2015,06,28,01,29,19.60
2015,06,28,01,30,19.60
2015,06,28,01,31,19.60
2015,06,28,01,32,19.50
2015,06,28,01,33,19.50
2015,06,28,01,34,19.50
2015,06,28,01,35,19.50
2015,06,28,01,36,19.50
2015,06,28,01,37,19.50
2015,06,28,01,38,19.40
2015,06,28,01,39,19.40
2015,06,28,01,40,19.40
2015,06,28,01,41,19.40
2015,06,28,01,42,19.40
2015,06,28,01,43,19.50
2015,06,28,01,44,19.50
2015,06,28,01,45,19.50
2015,06,28,01,46,19.50
2015,06,28,01,47,19.50
2015,06,28,01,48,19.50
2015,06,28,01,49,19.50
2015,06,28,01,50,19.50
2015,06,28,01,51,19.50
2015,06,28,01,52,19.50
2015,06,28,01,53,19.50
2015,06,28,01,54,19.50
2015,06,28,01,55,19.50
2015,06,28,01,56,19.50
2015,06,28,01,57,19.40
2015,06,28,01,58,19.40
2015,06,28,01,59,19.40
2015,06,28,02,00,19.40
2015,06,28,02,01,19.30
2015,06,28,02,02,19.30
2015,06,28,02,03,19.30
2015,06,28,02,04,19.30
2015,06,28,02,05,19.30
2015,06,28,02,06,19.30
2015,06,28,02,07,19.30
2015,06,28,02,08,19.30
2015,06,28,02,09,19.30
2015,06,28,02,10,19.30
2015,06,28,02,11,19.30
2015,06,28,02,12,19.30
2015,06,28,02,13,19.20
2015,06,28,02,14,19.20
2015,06,28,02,15,19.20
2015,06,28,02,16,19.20
2015,06,28,02,17,19.20
2015,06,28,02,18,19.10
2015,06,28,02,19,19.10
2015,06,28,02,20,19.10
2015,06,28,02,21,19.10
2015,06,28,02,22,19.10
2015,06,28,02,23,19.10
2015,06,28,02,24,19.10
2015,06,28,02,25,19.10
2015,06,28,02,26,19.00
2015,06,28,02,27,19.00
2015,06,28,02,28,18.90
2015,06,28,02,29,18.90
2015,06,28,02,30,18.90
2015,06,28,02,31,18.80
2015,06,28,02,32,18.80
2015,06,28,02,33,18.80
2015,06,28,02,34,18.80
2015,06,28,02,35,18.80
2015,06,28,02,36,18.80
2015,06,28,02,37,18.80
2015,06,28,02,38,18.80
2015,06,28,02,39,18.70
2015,06,28,02,40,18.70
2015,06,28,02,41,18.70
2015,06,28,02,42,18.70
2015,06,28,02,43,18.70
2015,06,28,02,44,18.70
2015,06,28,02,45,18.60
2015,06,28,02,46,18.60
2015,06,28,02,47,18.60
2015,06,28,02,48,18.60
2015,06,28,02,49,18.50
2015,06,28,02,50,18.40
2015,06,28,02,51,18.40
2015,06,28,02,52,18.40
2015,06,28,02,53,18.40
2015,06,28,02,54,18.30
2015,06,28,02,55,18.30
2015,06,28,02,56,18.30
2015,06,28,02,57,18.30
2015,06,28,02,58,18.30
2015,06,28,02,59,18.30
2015,06,28,03,00,18.30
2015,06,28,03,01,18.20
2015,06,28,03,02,18.20
2015,06,28,03,06,18.10
2015,06,28,03,07,18.10
2015,06,28,03,08,18.10
2015,06,28,03,09,18.10
2015,06,28,03,10,18.10
2015,06,28,03,11,18.10
2015,06,28,03,12,18.00
2015,06,28,03,13,18.00
2015,06,28,03,14,17.90
2015,06,28,03,15,17.90
2015,06,28,03,16,17.90
2015,06,28,03,17,17.90
2015,06,28,03,18,17.80
2015,06,28,03,19,17.80
2015,06,28,03,20,17.80
2015,06,28,03,21,17.80
2015,06,28,03,22,17.80
2015,06,28,03,23,17.80
2015,06,28,03,24,17.80
2015,06,28,03,25,17.80
2015,06,28,03,26,17.80
2015,06,28,03,27,17.80
2015,06,28,03,28,17.80
2015,06,28,03,29,17.80
2015,06,28,03,30,17.80
2015,06,28,03,31,17.80
2015,06,28,03,32,17.80
2015,06,28,06,04,18.20
2015,06,28,06,05,18.20
2015,06,28,06,06,18.20
2015,06,28,06,07,18.30
2015,06,28,06,08,18.30
2015,06,28,06,09,18.30
2015,06,28,06,10,18.30
2015,06,28,06,11,18.40
2015,06,28,06,12,18.40
2015,06,28,06,13,18.50
2015,06,28,06,14,18.50
2015,06,28,06,15,18.60
2015,06,28,06,16,18.60
2015,06,28,06,17,18.70
2015,06,28,06,18,18.70
2015,06,28,06,19,18.70
2015,06,28,06,20,18.80
2015,06,28,06,21,18.80
2015,06,28,06,22,18.90
2015,06,28,06,23,18.90
2015,06,28,06,24,19.00
2015,06,28,06,25,19.00
2015,06,28,06,26,19.10
2015,06,28,06,27,19.20
2015,06,28,06,28,19.20
2015,06,28,06,29,19.20
2015,06,28,06,30,19.20
2015,06,28,06,31,19.30
2015,06,28,06,32,19.30
2015,06,28,06,33,19.30
2015,06,28,06,34,19.30
2015,06,28,06,35,19.30
2015,06,28,06,36,19.30
2015,06,28,06,37,19.30
2015,06,28,06,38,19.40
2015,06,28,06,39,19.40
2015,06,28,06,40,19.40
2015,06,28,06,41,19.40
2015,06,28,06,42,19.40
2015,06,28,06,43,19.40
2015,06,28,06,44,19.40
2015,06,28,06,45,19.40
2015,06,28,06,46,19.40
2015,06,28,06,47,19.40
2015,06,28,06,48,19.40
2015,06,28,06,49,19.50
2015,06,28,06,50,19.50
2015,06,28,06,51,19.50
2015,06,28,06,52,19.50
2015,06,28,06,53,19.60
2015,06,28,06,54,19.60
2015,06,28,06,55,19.70
2015,06,28,06,56,19.70
2015,06,28,06,57,19.70
2015,06,28,06,58,19.80
2015,06,28,06,59,19.80
2015,06,28,07,00,19.90
2015,06,28,07,01,19.90
2015,06,28,07,02,20.00
2015,06,28,07,03,20.10
2015,06,28,07,04,20.20
2015,06,28,07,05,20.20
2015,06,28,07,06,20.40
2015,06,28,07,07,20.50
2015,06,28,07,08,20.60
2015,06,28,07,09,20.60
2015,06,28,07,10,20.70
2015,06,28,07,11,20.80
2015,06,28,07,12,20.80
2015,06,28,07,13,20.90
2015,06,28,07,14,21.00
2015,06,28,07,15,21.00
2015,06,28,07,16,21.10
2015,06,28,07,17,21.10
2015,06,28,07,18,21.10
2015,06,28,07,19,21.20
2015,06,28,07,20,21.20
2015,06,28,07,21,21.20
2015,06,28,07,22,21.30
2015,06,28,07,23,21.30
2015,06,28,07,24,21.40
2015,06,28,07,25,21.50
2015,06,28,07,26,21.50
2015,06,28,07,27,21.60
2015,06,28,07,28,21.70
2015,06,28,07,29,21.70
2015,06,28,07,30,21.80
2015,06,28,07,31,21.80
2015,06,28,07,32,21.80
2015,06,28,07,33,21.80
2015,06,28,07,34,21.80
2015,06,28,07,35,21.80
2015,06,28,07,36,21.80
2015,06,28,07,37,21.70
2015,06,28,07,38,21.70
2015,06,28,07,39,21.70
2015,06,28,07,40,21.70
2015,06,28,07,41,21.80
2015,06,28,07,42,21.80
2015,06,28,07,43,21.80
2015,06,28,07,44,21.90
2015,06,28,07,45,21.90
2015,06,28,07,46,21.90
2015,06,28,07,47,21.90
2015,06,28,07,48,21.90
2015,06,28,07,49,21.80
2015,06,28,07,50,21.80
2015,06,28,07,51,21.70
2015,06,28,07,52,21.70
2015,06,28,07,53,21.70
2015,06,28,07,54,21.60
2015,06,28,07,55,21.60
2015,06,28,07,56,21.60
2015,06,28,07,57,21.60
2015,06,28,07,58,21.60
2015,06,28,07,59,21.60
2015,06,28,08,00,21.70
2015,06,28,08,01,21.70
2015,06,28,08,02,21.70
2015,06,28,08,03,21.80
2015,06,28,08,04,21.90
2015,06,28,08,05,22.00
2015,06,28,08,06,22.10
2015,06,28,08,07,22.30
2015,06,28,08,08,22.40
2015,06,28,08,09,22.50
2015,06,28,08,10,22.70
2015,06,28,08,11,22.90
2015,06,28,08,12,23.00
2015,06,28,08,13,23.20
2015,06,28,08,14,23.30
2015,06,28,08,15,23.50
2015,06,28,08,16,23.60
2015,06,28,08,17,23.80
2015,06,28,08,18,24.00
2015,06,28,08,19,24.20
2015,06,28,08,20,24.30
2015,06,28,08,21,24.40
2015,06,28,08,22,24.50
2015,06,28,08,23,24.60
2015,06,28,08,24,24.60
2015,06,28,08,25,24.60
2015,06,28,08,26,24.70
2015,06,28,08,27,24.70
2015,06,28,08,28,24.80
2015,06,28,08,29,24.80
2015,06,28,08,30,24.90
2015,06,28,08,31,24.90
2015,06,28,08,32,25.10
2015,06,28,08,33,25.20
2015,06,28,08,34,25.30
2015,06,28,08,35,25.30
2015,06,28,08,36,25.30
2015,06,28,08,37,25.40
2015,06,28,08,38,25.40
2015,06,28,08,39,25.40
2015,06,28,08,40,25.40
2015,06,28,08,41,25.40
2015,06,28,08,42,25.40
2015,06,28,08,43,25.40
2015,06,28,08,44,25.40
2015,06,28,08,45,25.40
2015,06,28,08,46,25.50
2015,06,28,08,47,25.50
2015,06,28,08,48,25.60
2015,06,28,08,49,25.60
2015,06,28,08,50,25.60
2015,06,28,08,51,25.60
2015,06,28,08,52,25.60
2015,06,28,08,53,25.60
2015,06,28,08,54,25.70
2015,06,28,08,55,25.70
2015,06,28,08,56,25.70
2015,06,28,08,57,25.70
2015,06,28,08,58,25.70
2015,06,28,08,59,25.70
2015,06,28,09,00,25.70
2015,06,28,09,01,25.80
2015,06,28,09,02,25.80
2015,06,28,09,03,25.80
2015,06,28,09,04,25.90
2015,06,28,09,05,25.90
2015,06,28,09,06,26.00
2015,06,28,09,07,26.10
2015,06,28,09,08,26.20
2015,06,28,09,09,26.30
2015,06,28,09,10,26.40
2015,06,28,09,11,26.50
2015,06,28,09,12,26.50
2015,06,28,09,13,26.60
2015,06,28,09,14,26.60
2015,06,28,09,15,26.60
2015,06,28,09,16,26.60
2015,06,28,09,17,26.60
2015,06,28,09,18,26.60
2015,06,28,09,19,26.50
2015,06,28,09,20,26.50
2015,06,28,09,21,26.50
2015,06,28,09,22,26.40
2015,06,28,09,23,26.40
2015,06,28,09,24,26.50
2015,06,28,09,25,26.50
2015,06,28,09,26,26.60
2015,06,28,09,27,26.60
2015,06,28,09,28,26.70
2015,06,28,09,29,26.70
2015,06,28,09,30,26.70
2015,06,28,09,31,26.70
2015,06,28,09,32,26.70
2015,06,28,09,33,26.60
2015,06,28,09,34,26.60
2015,06,28,09,35,26.60
2015,06,28,09,36,26.60
2015,06,28,09,37,26.60
2015,06,28,09,38,26.50
2015,06,28,09,39,26.50
2015,06,28,09,40,26.40
2015,06,28,09,41,26.40
2015,06,28,09,42,26.30
2015,06,28,09,43,26.30
2015,06,28,09,44,26.30
2015,06,28,09,45,26.30
2015,06,28,09,46,26.30
2015,06,28,09,47,26.30
2015,06,28,09,48,26.30
2015,06,28,09,49,26.40
2015,06,28,09,50,26.40
2015,06,28,09,51,26.40
2015,06,28,09,52,26.50
2015,06,28,09,53,26.60
2015,06,28,09,54,26.60
2015,06,28,09,55,26.70
2015,06,28,09,56,26.80
2015,06,28,09,57,26.90
2015,06,28,09,58,27.00
2015,06,28,09,59,27.10
2015,06,28,10,00,27.20
2015,06,28,10,01,27.30
2015,06,28,10,02,27.40
2015,06,28,10,03,27.40
2015,06,28,10,04,27.40
2015,06,28,10,05,27.40
2015,06,28,10,06,27.50
2015,06,28,10,07,27.50
2015,06,28,10,08,27.50
2015,06,28,10,09,27.50
2015,06,28,10,10,27.60
2015,06,28,10,11,27.60
2015,06,28,10,12,27.70
2015,06,28,10,13,27.70
2015,06,28,10,14,27.70
2015,06,28,10,15,27.70
2015,06,28,10,16,27.70
2015,06,28,10,17,27.70
2015,06,28,10,18,27.70
2015,06,28,10,19,27.80
2015,06,28,10,20,27.90
2015,06,28,10,21,28.00
2015,06,28,10,22,28.10
2015,06,28,10,23,28.20
2015,06,28,10,24,28.30
2015,06,28,10,25,28.30
2015,06,28,10,26,28.30
2015,06,28,10,27,28.30
2015,06,28,10,28,28.30
2015,06,28,10,29,28.20
2015,06,28,10,30,28.20
2015,06,28,10,31,28.10
2015,06,28,10,32,28.10
2015,06,28,10,33,28.00
2015,06,28,10,34,27.90
2015,06,28,10,35,27.90
2015,06,28,10,36,27.80
2015,06,28,10,37,27.80
2015,06,28,10,38,27.90
2015,06,28,10,39,27.90
2015,06,28,10,40,28.00
2015,06,28,10,41,28.10
2015,06,28,10,42,28.10
2015,06,28,10,43,28.20
2015,06,28,10,44,28.30
2015,06,28,10,45,28.30
2015,06,28,10,46,28.30
2015,06,28,10,47,28.30
2015,06,28,10,48,28.20
2015,06,28,10,49,28.20
2015,06,28,10,50,28.20
2015,06,28,10,51,28.20
2015,06,28,10,52,28.10
2015,06,28,10,53,28.10
2015,06,28,10,54,28.10
2015,06,28,10,55,28.10
2015,06,28,10,56,28.10
2015,06,28,10,57,28.10
2015,06,28,10,58,28.20
2015,06,28,10,59,28.20
2015,06,28,11,00,28.30
2015,06,28,11,01,28.40
2015,06,28,11,02,28.50
2015,06,28,11,03,28.60
2015,06,28,11,04,28.70
2015,06,28,11,05,28.70
2015,06,28,11,06,28.80
2015,06,28,11,07,28.90
2015,06,28,11,08,28.90
2015,06,28,11,09,29.00
2015,06,28,11,10,29.10
2015,06,28,11,11,29.10
2015,06,28,11,12,29.00
2015,06,28,11,13,28.90
2015,06,28,11,14,28.80
2015,06,28,11,15,28.60
2015,06,28,11,16,28.50
2015,06,28,11,17,28.30
2015,06,28,11,18,28.20
2015,06,28,11,19,28.00
2015,06,28,11,20,28.00
2015,06,28,11,21,27.90
2015,06,28,11,22,27.90
2015,06,28,11,23,27.90
2015,06,28,11,24,27.90
2015,06,28,11,25,28.00
2015,06,28,11,26,28.00
2015,06,28,11,27,28.00
2015,06,28,11,28,28.10
2015,06,28,11,29,28.10
2015,06,28,11,30,28.10
2015,06,28,11,31,28.20
2015,06,28,11,32,28.20
2015,06,28,11,33,28.20
2015,06,28,11,34,28.00
2015,06,28,11,35,27.80
2015,06,28,11,36,27.60
2015,06,28,11,37,27.40
2015,06,28,11,38,27.10
2015,06,28,11,39,26.90
2015,06,28,11,40,26.70
2015,06,28,11,41,26.40
2015,06,28,11,42,26.30
2015,06,28,11,43,26.20
2015,06,28,11,44,26.20
2015,06,28,11,45,26.10
2015,06,28,11,46,25.90
2015,06,28,11,47,25.80
2015,06,28,11,48,25.70
2015,06,28,11,49,25.60
2015,06,28,11,50,25.50
2015,06,28,11,51,25.50
2015,06,28,11,52,25.40
2015,06,28,11,53,25.40
2015,06,28,11,54,25.30
2015,06,28,11,55,25.30
2015,06,28,11,56,25.20
2015,06,28,11,57,25.20
2015,06,28,11,58,25.10
2015,06,28,11,59,25.10
2015,06,28,12,00,25.10
2015,06,28,12,01,25.10
2015,06,28,12,02,25.10
2015,06,28,12,03,25.10
2015,06,28,12,04,25.10
2015,06,28,12,05,25.10
2015,06,28,12,06,25.10
2015,06,28,12,07,25.10
2015,06,28,12,08,25.10
2015,06,28,12,09,25.10
2015,06,28,12,10,25.10
2015,06,28,12,11,25.10
2015,06,28,12,12,25.10
2015,06,28,12,13,25.10
2015,06,28,12,14,25.10
2015,06,28,12,15,25.10
2015,06,28,12,16,25.00
2015,06,28,12,17,25.00
2015,06,28,12,18,24.90
2015,06,28,12,19,24.80
2015,06,28,12,20,24.80
2015,06,28,12,21,24.80
2015,06,28,12,22,24.80
2015,06,28,12,23,24.80
2015,06,28,12,24,24.80
2015,06,28,12,25,24.90
2015,06,28,12,26,24.90
2015,06,28,12,27,24.90
2015,06,28,12,28,24.90
2015,06,28,12,29,25.00
2015,06,28,12,30,25.00
2015,06,28,12,31,25.00
2015,06,28,12,32,25.00
2015,06,28,12,33,25.00
2015,06,28,12,34,25.10
2015,06,28,12,35,25.10
2015,06,28,12,36,25.10
2015,06,28,12,37,25.10
2015,06,28,12,38,25.00
2015,06,28,12,39,25.00
2015,06,28,12,40,25.00
2015,06,28,12,41,25.00
2015,06,28,12,42,25.00
2015,06,28,12,43,25.10
2015,06,28,12,44,25.10
2015,06,28,12,45,25.10
2015,06,28,12,46,25.20
2015,06,28,12,47,25.20
2015,06,28,12,48,25.20
2015,06,28,12,49,25.30
2015,06,28,12,50,25.30
2015,06,28,12,51,25.30
2015,06,28,12,52,25.30
2015,06,28,12,53,25.30
2015,06,28,12,54,25.40
2015,06,28,12,55,25.40
2015,06,28,12,56,25.50
2015,06,28,12,57,25.60
2015,06,28,12,58,25.60
2015,06,28,12,59,25.60
2015,06,28,13,00,25.70
2015,06,28,13,01,25.70
2015,06,28,13,02,25.70
2015,06,28,13,03,25.80
2015,06,28,13,04,25.80
2015,06,28,13,05,25.80
2015,06,28,13,06,25.80
2015,06,28,13,07,25.80
2015,06,28,13,08,25.80
2015,06,28,13,09,25.80
2015,06,28,13,10,25.80
2015,06,28,13,11,25.80
2015,06,28,13,12,25.80
2015,06,28,13,13,25.80
2015,06,28,13,14,25.80
2015,06,28,13,15,25.80
2015,06,28,13,16,25.90
2015,06,28,13,17,25.90
2015,06,28,13,18,25.90
2015,06,28,13,19,26.00
2015,06,28,13,20,26.00
2015,06,28,13,21,26.10
2015,06,28,13,22,26.10
2015,06,28,13,23,26.10
2015,06,28,13,24,26.20
2015,06,28,13,25,26.20
2015,06,28,13,26,26.30
2015,06,28,13,27,26.30
2015,06,28,13,28,26.30
2015,06,28,13,29,26.30
2015,06,28,13,30,26.30
2015,06,28,13,31,26.30
2015,06,28,13,32,26.30
2015,06,28,13,33,26.30
2015,06,28,13,34,26.30
2015,06,28,13,35,26.30
2015,06,28,13,36,26.30
2015,06,28,13,37,26.30
2015,06,28,13,38,26.20
2015,06,28,13,39,26.20
2015,06,28,13,40,26.30
2015,06,28,13,41,26.30
2015,06,28,13,42,26.30
2015,06,28,13,43,26.30
2015,06,28,13,44,26.30
2015,06,28,13,45,26.30
2015,06,28,13,46,26.30
2015,06,28,13,47,26.30
2015,06,28,13,48,26.30
2015,06,28,13,49,26.30
2015,06,28,13,50,26.30
2015,06,28,13,51,26.20
2015,06,28,13,52,26.20
2015,06,28,13,53,26.20
2015,06,28,13,54,26.20
2015,06,28,13,55,26.20
2015,06,28,13,56,26.10
2015,06,28,13,57,26.10
2015,06,28,13,58,26.10
2015,06,28,13,59,26.10
2015,06,28,14,00,26.10
2015,06,28,14,01,26.10
2015,06,28,14,02,26.10
2015,06,28,14,03,26.10
2015,06,28,14,04,26.10
2015,06,28,14,05,26.10
2015,06,28,14,06,26.10
2015,06,28,14,07,26.10
2015,06,28,14,08,26.10
2015,06,28,14,09,26.10
2015,06,28,14,10,26.10
2015,06,28,14,11,26.10
2015,06,28,14,12,26.10
2015,06,28,14,13,26.10
2015,06,28,14,14,26.10
2015,06,28,14,15,26.10
2015,06,28,14,16,26.10
2015,06,28,14,17,26.10
2015,06,28,14,18,26.10
2015,06,28,14,19,26.10
2015,06,28,14,20,26.00
2015,06,28,14,21,26.00
2015,06,28,14,22,26.10
2015,06,28,14,23,26.10
2015,06,28,14,24,26.10
2015,06,28,14,25,26.10
2015,06,28,14,26,26.10
2015,06,28,14,27,26.10
2015,06,28,14,28,26.10
2015,06,28,14,29,26.10
2015,06,28,14,30,26.10
2015,06,28,14,31,26.10
2015,06,28,14,32,26.10
2015,06,28,14,33,26.10
2015,06,28,14,34,26.10
2015,06,28,14,35,26.10
2015,06,28,14,36,26.00
2015,06,28,14,37,26.00
2015,06,28,14,38,26.00
2015,06,28,14,39,26.00
2015,06,28,14,40,25.90
2015,06,28,14,41,25.90
2015,06,28,14,42,25.90
2015,06,28,14,43,25.90
2015,06,28,14,44,25.90
2015,06,28,14,45,25.90
2015,06,28,14,46,25.90
2015,06,28,14,47,25.80
2015,06,28,14,48,25.70
2015,06,28,14,49,25.70
2015,06,28,14,50,25.60
2015,06,28,14,51,25.60
2015,06,28,14,52,25.60
2015,06,28,14,53,25.60
2015,06,28,14,54,25.60
2015,06,28,14,55,25.60
2015,06,28,14,56,25.60
2015,06,28,14,57,25.60
2015,06,28,14,58,25.60
2015,06,28,14,59,25.60
2015,06,28,15,00,25.60
2015,06,28,15,01,25.60
2015,06,28,15,02,25.60
2015,06,28,15,03,25.60
2015,06,28,15,04,25.60
2015,06,28,15,05,25.70
2015,06,28,15,06,25.70
2015,06,28,15,07,25.70
2015,06,28,15,08,25.70
2015,06,28,15,09,25.60
2015,06,28,15,10,25.60
2015,06,28,15,11,25.50
2015,06,28,15,12,25.40
2015,06,28,15,13,25.30
2015,06,28,15,14,25.20
2015,06,28,15,15,25.10
2015,06,28,15,16,25.10
2015,06,28,15,17,24.90
2015,06,28,15,18,24.80
2015,06,28,15,19,24.60
2015,06,28,15,20,24.40
2015,06,28,15,21,24.20
2015,06,28,15,22,24.10
2015,06,28,15,23,24.00
2015,06,28,15,24,23.90
2015,06,28,15,25,23.80
2015,06,28,15,26,23.80
2015,06,28,15,27,23.80
2015,06,28,15,28,23.80
2015,06,28,15,29,23.80
2015,06,28,15,30,23.80
2015,06,28,15,31,23.90
2015,06,28,15,32,23.90
2015,06,28,15,33,23.90
2015,06,28,15,34,23.90
2015,06,28,15,35,24.00
2015,06,28,15,36,24.00
2015,06,28,15,37,24.10
2015,06,28,15,38,24.10
2015,06,28,15,39,24.10
2015,06,28,15,40,24.20
2015,06,28,15,41,24.20
2015,06,28,15,42,24.20
2015,06,28,15,43,24.30
2015,06,28,15,44,24.30
2015,06,28,15,45,24.30
2015,06,28,15,46,24.30
2015,06,28,15,47,24.30
2015,06,28,15,48,24.40
2015,06,28,15,49,24.40
2015,06,28,15,50,24.40
2015,06,28,15,51,24.40
2015,06,28,15,52,24.50
2015,06,28,15,53,24.50
2015,06,28,15,54,24.60
2015,06,28,15,55,24.60
2015,06,28,15,56,24.60
2015,06,28,15,57,24.60
2015,06,28,15,58,24.60
2015,06,28,15,59,24.70
2015,06,28,16,00,24.70
2015,06,28,16,01,24.70
2015,06,28,16,02,24.70
2015,06,28,16,03,24.70
2015,06,28,16,04,24.60
2015,06,28,16,05,24.60
2015,06,28,16,06,24.60
2015,06,28,16,07,24.60
2015,06,28,16,08,24.60
2015,06,28,16,09,24.60
2015,06,28,16,10,24.60
2015,06,28,16,11,24.60
2015,06,28,16,12,24.60
2015,06,28,16,13,24.60
2015,06,28,16,14,24.60
2015,06,28,16,15,24.60
2015,06,28,16,16,24.60
2015,06,28,16,17,24.60
2015,06,28,16,18,24.70
2015,06,28,16,19,24.70
2015,06,28,16,20,24.70
2015,06,28,16,21,24.60
2015,06,28,16,22,24.60
2015,06,28,16,23,24.60
2015,06,28,16,24,24.60
2015,06,28,16,25,24.60
2015,06,28,16,26,24.60
2015,06,28,16,27,24.60
2015,06,28,16,28,24.50
2015,06,28,16,29,24.50
2015,06,28,16,30,24.50
2015,06,28,16,31,24.50
2015,06,28,16,32,24.40
2015,06,28,16,33,24.40
2015,06,28,16,34,24.40
2015,06,28,16,35,24.40
2015,06,28,16,36,24.40
2015,06,28,16,37,24.40
2015,06,28,16,38,24.40
2015,06,28,16,39,24.40
2015,06,28,16,40,24.40
2015,06,28,16,41,24.40
2015,06,28,16,42,24.40
2015,06,28,16,43,24.40
2015,06,28,16,44,24.40
2015,06,28,16,45,24.40
2015,06,28,16,46,24.40
2015,06,28,16,47,24.40
2015,06,28,16,48,24.40
2015,06,28,16,49,24.40
2015,06,28,16,50,24.40
2015,06,28,16,51,24.40
2015,06,28,16,52,24.40
2015,06,28,16,53,24.40
2015,06,28,16,54,24.40
2015,06,28,16,55,24.40
2015,06,28,16,56,24.50
2015,06,28,16,57,24.50
2015,06,28,16,58,24.50
2015,06,28,16,59,24.50
2015,06,28,17,00,24.50
2015,06,28,17,01,24.50
2015,06,28,17,02,24.50
2015,06,28,17,03,24.60
2015,06,28,17,04,24.60
2015,06,28,17,05,24.60
2015,06,28,17,06,24.50
2015,06,28,17,07,24.60
2015,06,28,17,08,24.60
2015,06,28,17,09,24.50
2015,06,28,17,10,24.50
2015,06,28,17,11,24.50
2015,06,28,17,12,24.50
2015,06,28,17,13,24.50
2015,06,28,17,14,24.50
2015,06,28,17,15,24.40
2015,06,28,17,16,24.40
2015,06,28,17,17,24.40
2015,06,28,17,18,24.40
2015,06,28,17,19,24.40
2015,06,28,17,20,24.40
2015,06,28,17,21,24.40
2015,06,28,17,22,24.40
2015,06,28,17,23,24.30
2015,06,28,17,24,24.30
2015,06,28,17,25,24.30
2015,06,28,17,26,24.30
2015,06,28,17,27,24.30
2015,06,28,17,28,24.20
2015,06,28,17,29,24.20
2015,06,28,17,30,24.20
2015,06,28,17,31,24.10
2015,06,28,17,32,24.10
2015,06,28,17,33,24.10
2015,06,28,17,34,24.10
2015,06,28,17,35,24.00
2015,06,28,17,36,23.90
2015,06,28,17,37,23.80
2015,06,28,17,38,23.70
2015,06,28,17,39,23.60
2015,06,28,17,40,23.50
2015,06,28,17,41,23.30
2015,06,28,17,42,23.30
2015,06,28,17,43,23.20
2015,06,28,17,44,23.10
2015,06,28,17,45,23.00
2015,06,28,17,46,23.00
2015,06,28,17,47,22.90
2015,06,28,17,48,22.90
2015,06,28,17,49,22.80
2015,06,28,17,50,22.80
2015,06,28,17,51,22.80
2015,06,28,17,52,22.70
2015,06,28,17,53,22.70
2015,06,28,17,54,22.60
2015,06,28,17,55,22.60
2015,06,28,17,56,22.60
2015,06,28,17,57,22.50
2015,06,28,17,58,22.40
2015,06,28,17,59,22.40
2015,06,28,18,00,22.30
2015,06,28,18,01,22.30
2015,06,28,18,02,22.20
2015,06,28,18,03,22.20
2015,06,28,18,04,22.20
2015,06,28,18,05,22.20
2015,06,28,18,06,22.10
2015,06,28,18,07,22.10
2015,06,28,18,08,22.10
2015,06,28,18,09,22.10
2015,06,28,18,10,22.10
2015,06,28,18,11,22.10
2015,06,28,18,12,22.20
2015,06,28,18,13,22.20
2015,06,28,18,14,22.20
2015,06,28,18,15,22.20
2015,06,28,18,16,22.20
2015,06,28,18,17,22.30
2015,06,28,18,18,22.30
2015,06,28,18,19,22.30
2015,06,28,18,20,22.30
2015,06,28,18,21,22.40
2015,06,28,18,22,22.40
2015,06,28,18,23,22.40
2015,06,28,18,24,22.40
2015,06,28,18,25,22.40
2015,06,28,18,26,22.40
2015,06,28,18,27,22.50
2015,06,28,18,28,22.50
2015,06,28,18,29,22.50
2015,06,28,18,30,22.50
2015,06,28,18,31,22.50
2015,06,28,18,32,22.50
2015,06,28,18,33,22.50
2015,06,28,18,34,22.50
2015,06,28,18,35,22.60
2015,06,28,18,36,22.60
2015,06,28,18,37,22.60
2015,06,28,18,38,22.60
2015,06,28,18,39,22.60
2015,06,28,18,40,22.60
2015,06,28,18,41,22.60
2015,06,28,18,42,22.60
2015,06,28,18,43,22.60
2015,06,28,18,44,22.50
2015,06,28,18,45,22.50
2015,06,28,18,46,22.50
2015,06,28,18,47,22.50
2015,06,28,18,48,22.50
2015,06,28,18,49,22.50
2015,06,28,18,50,22.60
2015,06,28,18,51,22.60
2015,06,28,18,52,22.60
2015,06,28,18,53,22.60
2015,06,28,18,54,22.60
2015,06,28,18,55,22.70
2015,06,28,18,56,22.70
2015,06,28,18,57,22.70
2015,06,28,18,58,22.70
2015,06,28,18,59,22.80
2015,06,28,19,00,22.80
2015,06,28,19,01,22.80
2015,06,28,19,02,22.90
2015,06,28,19,03,22.90
2015,06,28,19,04,22.90
2015,06,28,19,05,22.90
2015,06,28,19,06,22.90
2015,06,28,19,07,22.90
2015,06,28,19,08,23.00
2015,06,28,19,09,23.00
2015,06,28,19,10,23.00
2015,06,28,19,11,23.00
2015,06,28,19,12,23.00
2015,06,28,19,13,23.00
2015,06,28,19,14,23.00
2015,06,28,19,15,23.00
2015,06,28,19,16,23.10
2015,06,28,19,17,23.10
2015,06,28,19,18,23.10
2015,06,28,19,19,23.10
2015,06,28,19,20,23.10
2015,06,28,19,21,23.10
2015,06,28,19,22,23.10
2015,06,28,19,23,23.00
2015,06,28,19,24,23.00
2015,06,28,19,25,23.00
2015,06,28,19,26,22.90
2015,06,28,19,27,22.90
2015,06,28,19,28,22.90
2015,06,28,19,29,22.90
2015,06,28,19,30,22.80
2015,06,28,19,31,22.80
2015,06,28,19,32,22.80
2015,06,28,19,33,22.80
2015,06,28,19,34,22.80
2015,06,28,19,35,22.80
2015,06,28,19,36,22.80
2015,06,28,19,37,22.80
2015,06,28,19,38,22.80
2015,06,28,19,39,22.80
2015,06,28,19,40,22.80
2015,06,28,19,41,22.70
2015,06,28,19,42,22.70
2015,06,28,19,43,22.70
2015,06,28,19,44,22.70
2015,06,28,19,45,22.70
2015,06,28,19,46,22.70
2015,06,28,19,47,22.70
2015,06,28,19,48,22.60
2015,06,28,19,49,22.60
2015,06,28,19,50,22.60
2015,06,28,19,51,22.60
2015,06,28,19,52,22.60
2015,06,28,19,53,22.60